TimeEST,TemperatureF,Dew PointF,Humidity,Sea Level PressureIn,VisibilityMPH,Wind Direction,Wind SpeedMPH,Gust SpeedMPH,PrecipitationIn,Events,Conditions,WindDirDegrees,DateUTC
12:53 AM,57.0,53.1,87,30.05,10.0,SSW,10.4,-,N/A,,Clear,200,2013-03-06 05:53:00
1:53 AM,55.9,53.1,90,30.03,10.0,SW,5.8,-,N/A,,Partly Cloudy,230,2013-03-06 06:53:00
2:53 AM,55.9,54.0,93,30.01,9.0,SW,8.1,-,N/A,,Scattered Clouds,220,2013-03-06 07:53:00
3:53 AM,60.1,55.9,86,29.99,10.0,SW,9.2,-,N/A,,Mostly Cloudy,220,2013-03-06 08:53:00
4:53 AM,60.1,55.9,86,29.99,10.0,SW,9.2,-,N/A,,Partly Cloudy,220,2013-03-06 09:53:00
5:53 AM,60.1,57.0,90,29.99,10.0,SSW,9.2,-,N/A,,Overcast,210,2013-03-06 10:53:00
6:53 AM,61.0,57.0,87,30.01,10.0,SW,9.2,-,N/A,,Overcast,220,2013-03-06 11:53:00
7:53 AM,63.0,59.0,87,30.02,10.0,SW,9.2,-,0.02,,Mostly Cloudy,220,2013-03-06 12:53:00
8:20 AM,64.4,59.0,83,30.03,10.0,SW,11.5,-,0.00,Rain,Light Rain,230,2013-03-06 13:20:00
8:53 AM,64.0,60.1,87,30.05,10.0,WSW,12.7,-,0.00,,Overcast,250,2013-03-06 13:53:00
9:53 AM,66.9,55.0,66,30.06,10.0,West,17.3,-,N/A,,Overcast,280,2013-03-06 14:53:00
10:48 AM,68.0,50.0,52,30.07,10.0,WNW,13.8,19.6,N/A,,Partly Cloudy,300,2013-03-06 15:48:00
10:53 AM,68.0,50.0,52,30.06,10.0,WNW,11.5,19.6,N/A,,Partly Cloudy,300,2013-03-06 15:53:00
11:53 AM,69.1,41.0,36,30.05,10.0,West,9.2,16.1,N/A,,Clear,270,2013-03-06 16:53:00
12:53 PM,70.0,33.1,26,30.02,10.0,WSW,20.7,28.8,N/A,,Clear,250,2013-03-06 17:53:00
1:53 PM,69.1,30.9,24,29.99,10.0,West,21.9,26.5,N/A,,Clear,270,2013-03-06 18:53:00
2:53 PM,71.1,32.0,24,29.98,10.0,West,25.3,34.5,N/A,,Clear,280,2013-03-06 19:53:00
3:53 PM,72.0,26.1,18,29.96,10.0,WNW,23.0,29.9,N/A,,Clear,290,2013-03-06 20:53:00
4:53 PM,71.1,24.1,17,29.96,10.0,West,21.9,27.6,N/A,,Clear,270,2013-03-06 21:53:00
5:53 PM,66.0,19.0,17,29.99,10.0,WNW,20.7,26.5,N/A,,Clear,290,2013-03-06 22:53:00
6:53 PM,59.0,24.1,26,30.01,10.0,West,11.5,-,N/A,,Clear,280,2013-03-06 23:53:00
7:53 PM,55.9,28.0,34,30.04,10.0,West,12.7,-,N/A,,Clear,280,2013-03-07 00:53:00
8:53 PM,54.0,28.9,38,30.07,10.0,WNW,11.5,-,N/A,,Clear,290,2013-03-07 01:53:00
9:53 PM,53.1,32.0,45,30.10,10.0,WNW,13.8,-,N/A,,Clear,300,2013-03-07 02:53:00
10:53 PM,51.1,33.1,50,30.12,10.0,WNW,11.5,-,N/A,,Clear,300,2013-03-07 03:53:00
11:53 PM,48.9,33.1,54,30.13,10.0,NW,9.2,-,N/A,,Clear,310,2013-03-07 04:53:00